TimeEDT,TemperatureF,Dew PointF,Humidity,Sea Level PressureIn,VisibilityMPH,Wind Direction,Wind SpeedMPH,Gust SpeedMPH,PrecipitationIn,Events,Conditions,WindDirDegrees,DateUTC
12:56 AM,59.0,57.0,93,30.00,9.0,East,5.8,-,0.04,Rain,Light Rain,100,2013-06-07 04:56:00
1:56 AM,59.0,57.0,93,29.98,10.0,East,8.1,-,0.02,Rain,Light Rain,100,2013-06-07 05:56:00
2:56 AM,59.0,57.0,93,29.97,8.0,ESE,8.1,-,0.00,Rain,Light Rain,110,2013-06-07 06:56:00
3:56 AM,59.0,57.0,93,29.95,9.0,ESE,9.2,-,0.01,Rain,Light Rain,110,2013-06-07 07:56:00
4:56 AM,57.9,55.9,93,29.95,6.0,ESE,8.1,-,0.03,Rain,Light Rain,110,2013-06-07 08:56:00
5:56 AM,57.9,55.9,93,29.95,4.0,East,8.1,-,0.12,Rain,Rain,100,2013-06-07 09:56:00
6:56 AM,57.0,55.0,93,29.94,2.5,East,9.2,-,0.08,Rain,Light Rain,100,2013-06-07 10:56:00
7:06 AM,57.2,55.4,94,29.94,1.2,East,8.1,-,0.01,Rain,Light Rain,90,2013-06-07 11:06:00
7:56 AM,57.0,55.9,96,29.93,1.5,East,12.7,24.2,0.05,Rain,Light Rain,100,2013-06-07 11:56:00
8:56 AM,59.0,57.0,93,29.92,1.5,East,8.1,19.6,0.06,Rain,Light Rain,100,2013-06-07 12:56:00
9:56 AM,59.0,57.0,93,29.91,2.5,East,10.4,25.3,0.08,Rain,Light Rain,100,2013-06-07 13:56:00
10:56 AM,59.0,57.0,93,29.90,3.0,East,8.1,19.6,0.07,Rain,Light Rain,90,2013-06-07 14:56:00
11:56 AM,60.1,57.9,93,29.89,2.5,East,10.4,21.9,0.06,Rain,Light Rain,90,2013-06-07 15:56:00
12:56 PM,59.0,57.0,93,29.88,3.0,East,13.8,23.0,0.11,Rain,Light Rain,90,2013-06-07 16:56:00
1:11 PM,59.0,57.2,94,29.88,2.0,East,12.7,26.5,0.05,Rain,Rain,90,2013-06-07 17:11:00
1:56 PM,59.0,57.0,93,29.87,2.0,East,12.7,19.6,0.12,Rain,Rain,90,2013-06-07 17:56:00
2:56 PM,59.0,57.0,93,29.86,2.0,East,12.7,18.4,0.12,Rain,Light Rain,80,2013-06-07 18:56:00
3:56 PM,59.0,57.0,93,29.83,2.0,ENE,11.5,17.3,0.12,Rain,Light Rain,70,2013-06-07 19:56:00
4:56 PM,59.0,57.0,93,29.79,2.5,ENE,11.5,20.7,0.19,Rain,Rain,70,2013-06-07 20:56:00
5:56 PM,59.0,57.0,93,29.75,2.5,ENE,13.8,20.7,0.28,Rain,Rain,70,2013-06-07 21:56:00
6:02 PM,59.0,57.2,94,29.75,3.0,ENE,15.0,20.7,0.01,Rain,Rain,70,2013-06-07 22:02:00
6:51 PM,60.8,57.2,88,29.75,1.5,NE,10.4,17.3,0.04,Rain,Rain,50,2013-06-07 22:51:00
6:56 PM,60.1,57.9,93,29.75,1.5,ENE,11.5,17.3,0.06,Rain,Rain,70,2013-06-07 22:56:00
7:56 PM,60.1,57.9,93,29.73,4.0,Variable,6.9,16.1,0.10,Rain,Light Rain,0,2013-06-07 23:56:00
8:15 PM,60.8,57.2,88,29.74,2.5,ENE,9.2,19.6,0.06,Rain,Rain,70,2013-06-08 00:15:00
8:56 PM,60.1,57.9,93,29.72,1.5,NE,8.1,16.1,0.19,Rain,Rain,50,2013-06-08 00:56:00
9:11 PM,60.8,57.2,88,29.72,3.0,East,12.7,21.9,0.31,Rain,Rain,80,2013-06-08 01:11:00
9:18 PM,60.8,57.2,88,29.72,1.5,ENE,9.2,19.6,0.36,Rain,Rain,70,2013-06-08 01:18:00
9:56 PM,60.1,57.9,93,29.71,1.5,NE,12.7,21.9,0.55,Rain,Rain,50,2013-06-08 01:56:00
10:56 PM,59.0,57.0,93,29.68,1.5,NE,9.2,-,0.30,Rain,Rain,40,2013-06-08 02:56:00
11:56 PM,57.9,55.9,93,29.65,1.5,NNE,8.1,-,0.11,Rain,Rain,30,2013-06-08 03:56:00